Welcome to our new website - Welkom op onze vernieuwde website - Bienvenue sur notre nouveau site web - Willkommen auf unserer neuen Website
Check our progress frequently. Prüfen Sie unsere Fortschritte regelmäßig. Consultez notre progression fréquemment. Komt u straks nog eens terug

Bezoek ook deze websites:

Template documentation
and downloads

And another site



Het weer levert geen direct gevaar op.    Er zijn geen waarschuwingen afgegeven.

Select another period ( hide this area )

Eenheden Periode Custom range Directly to
Metrisch Engels Beide
Dagelijkse Wekelijkse Maandelijkse Jaarlijkse
use both date-selectors for a custom range
previous Dag
With this date

WeatherUnderground graphs for this period ( click here )


Dagelijkse Samenvatting Vrijdag 22 oktober 2021
Tijd Temp. ( °C ) Dew pt. ( °C ) Wind ( km/h ) van Windvlaag ( km/h ) Luchtdruk ( hPa ) Humid.( % ) Rainrate ( cm )
Hoog11,2 8,9 0,0 ( 0/0 ) 0,0 1015,6 92 2,03
Gemiddeld7,9 6,2 0,0 Kalm #205/205 0,0 1011,8 89 1,80
Laag5,7 4,3 -   0,0 1010,5 84 -
Dagelijkse Tabular details for Vrijdag 22 oktober 2021
Tijd Temp. ( °C ) Dew pt. ( °C ) Wind ( km/h ) van Windvlaag ( km/h ) Luchtdruk ( hPa ) Humid.( % ) Rainrate ( cm )
00:04 6,4 5,0   Kalm   1011,9 90 -
00:09 6,4 4,9   Kalm   1012,2 90 -
00:14 6,4 4,9   Kalm   1012,2 90 -
00:19 6,4 5,0   Kalm   1012,2 90 -
00:24 6,3 4,8   Kalm   1012,2 90 -
00:29 6,3 4,8   Kalm   1012,2 90 -
00:34 6,3 5,0   Kalm   1012,2 90 -
00:39 6,3 4,8   Kalm   1012,2 90 -
00:44 6,2 4,7   Kalm   1012,2 90 -
00:49 6,2 4,7   Kalm   1012,2 90 -
00:54 6,2 4,7   Kalm   1012,5 90 -
00:59 6,2 4,7   Kalm   1012,5 90 -
01:04 6,2 4,7   Kalm   1012,5 90 -
01:09 6,2 4,8   Kalm   1012,2 91 -
01:14 6,2 4,8   Kalm   1012,2 91 -
01:19 6,3 5,0   Kalm   1012,2 91 -
01:24 6,3 4,9   Kalm   1012,2 91 -
01:29 6,3 4,9   Kalm   1012,2 91 -
01:34 6,3 5,0   Kalm   1012,2 90 -
01:39 6,3 4,8   Kalm   1012,2 90 -
01:44 6,2 4,7   Kalm   1012,2 90 -
01:49 6,1 4,6   Kalm   1012,2 90 -
01:54 6,1 4,6   Kalm   1012,5 90 0,25
01:59 6,2 4,8   Kalm   1012,5 91 0,51
02:04 6,3 5,0   Kalm   1011,9 91 0,51
02:09 6,4 5,0   Kalm   1012,2 91 0,51
02:14 6,4 5,0   Kalm   1012,2 91 0,51
02:19 6,4 5,0   Kalm   1012,2 91 0,51
02:24 6,4 5,0   Kalm   1012,2 91 0,51
02:29 6,4 5,0   Kalm   1012,2 91 0,51
02:34 6,3 5,0   Kalm   1012,2 91 0,51
02:39 6,2 4,7   Kalm   1012,2 90 0,51
02:44 6,2 4,7   Kalm   1012,2 90 0,51
02:49 6,1 4,6   Kalm   1011,9 90 0,51
02:54 5,9 4,5   Kalm   1011,9 91 0,51
02:59 5,9 4,5   Kalm   1011,9 91 0,25
03:04 5,8 4,4   Kalm   1011,9 91 -
03:09 5,8 4,4   Kalm   1011,9 91 -
03:14 5,7 4,3   Kalm   1011,9 91 -
03:19 5,8 4,4   Kalm   1011,9 91 -
03:24 5,8 4,4   Kalm   1011,9 91 -
03:29 5,8 4,4   Kalm   1011,9 91 -
03:34 5,8 4,4   Kalm   1011,9 91 -
03:39 5,8 4,4   Kalm   1011,9 91 -
03:44 5,8 4,4   Kalm   1011,9 91 -
03:49 5,8 4,4   Kalm   1011,9 91 -
03:54 5,8 4,4   Kalm   1011,9 91 -
03:59 5,8 4,4   Kalm   1011,5 91 -
04:04 5,8 4,4   Kalm   1011,9 91 -
04:09 5,8 4,4   Kalm   1011,5 91 -
04:14 5,9 4,5   Kalm   1011,5 91 -
04:19 5,9 4,5   Kalm   1011,5 91 -
04:24 6,1 4,7   Kalm   1011,5 91 -
04:29 6,1 4,7   Kalm   1011,5 91 -
04:34 6,2 5,0   Kalm   1011,5 91 -
04:39 6,2 4,8   Kalm   1011,2 91 -
04:44 6,2 4,7   Kalm   1011,2 90 -
04:49 6,2 4,7   Kalm   1011,2 90 -
04:54 6,2 4,7   Kalm   1011,2 90 -
04:59 6,2 4,7   Kalm   1011,2 90 -
05:04 6,2 4,5   Kalm   1011,2 89 -
05:09 6,1 4,4   Kalm   1011,2 89 -
05:14 6,1 4,4   Kalm   1011,2 89 -
05:19 6,1 4,4   Kalm   1010,8 89 -
05:24 6,0 4,3   Kalm   1010,8 89 -
05:29 6,0 4,3   Kalm   1010,8 89 -
05:34 6,1 4,4   Kalm   1010,8 89 -
05:39 6,1 4,4   Kalm   1010,8 89 -
05:44 6,2 4,4   Kalm   1010,8 88 -
05:49 6,2 4,4   Kalm   1010,8 88 -
05:54 6,2 4,4   Kalm   1010,8 88 -
05:59 6,3 4,5   Kalm   1010,8 88 -
06:04 6,4 4,6   Kalm   1010,8 88 -
06:09 6,5 4,6   Kalm   1011,2 88 -
06:14 6,6 4,6   Kalm   1010,8 87 -
06:19 6,7 4,7   Kalm   1010,8 87 -
06:24 6,7 4,7   Kalm   1010,8 87 -
06:29 6,8 4,8   Kalm   1010,8 87 -
06:34 6,8 5,0   Kalm   1010,8 87 -
06:39 6,8 4,8   Kalm   1010,8 87 -
06:44 6,8 4,6   Kalm   1010,8 86 -
06:49 6,8 4,6   Kalm   1010,8 86 -
06:54 6,8 4,6   Kalm   1010,8 86 -
06:59 6,8 4,6   Kalm   1010,8 86 -
07:04 6,8 4,8   Kalm   1010,8 87 -
07:09 6,8 4,8   Kalm   1010,8 87 -
07:14 6,9 4,9   Kalm   1010,5 87 -
07:19 6,9 5,0   Kalm   1010,5 87 -
07:24 6,9 4,9   Kalm   1010,5 87 -
07:29 7,0 5,0   Kalm   1010,5 87 -
07:34 7,0 5,1   Kalm   1010,5 88 -
07:39 7,1 5,2   Kalm   1010,5 88 -
07:44 7,1 5,2   Kalm   1010,5 88 -
07:49 7,0 5,1   Kalm   1010,5 88 -
07:54 7,0 5,1   Kalm   1010,5 88 -
07:59 7,0 5,1   Kalm   1010,5 88 -
08:04 6,9 5,1   Kalm   1010,5 88 -
08:09 6,9 5,1   Kalm   1010,5 88 -
08:14 6,9 5,2   Kalm   1010,5 89 -
08:19 6,9 5,2   Kalm   1010,5 89 -
08:24 6,9 5,2   Kalm   1010,5 89 -
08:29 6,9 5,2   Kalm   1010,5 89 -
08:34 6,9 5,2   Kalm   1010,5 89 -
08:39 6,9 5,2   Kalm   1010,5 89 -
08:44 6,9 5,2   Kalm   1010,5 89 -
08:49 6,9 5,2   Kalm   1010,5 89 -
08:54 6,9 5,4   Kalm   1010,5 90 -
08:59 6,9 5,4   Kalm   1010,5 90 -
09:04 6,9 5,6   Kalm   1010,5 90 -
09:09 7,0 5,5   Kalm   1010,5 90 -
09:14 7,0 5,5   Kalm   1010,5 90 -
09:19 7,1 5,6   Kalm   1010,5 90 -
09:24 7,2 5,7   Kalm   1010,5 90 -
09:29 7,2 5,7   Kalm   1010,5 90 -
09:34 7,3 5,8   Kalm   1010,5 90 -
09:39 7,5 6,0   Kalm   1010,5 90 -
09:44 7,7 6,2   Kalm   1010,5 90 -
09:49 7,8 6,3   Kalm   1010,8 90 -
09:54 7,9 6,4   Kalm   1010,5 90 -
09:59 8,1 6,4   Kalm   1010,5 90 -
10:04 8,1 6,4   Kalm   1010,5 89 -
10:09 8,2 6,7   Kalm   1010,5 90 -
10:14 8,2 6,7   Kalm   1010,5 90 -
10:19 8,2 6,7   Kalm   1010,5 90 -
10:24 8,2 6,7   Kalm   1010,5 90 -
10:29 8,2 6,7   Kalm   1010,8 90 -
10:34 8,3 6,8   Kalm   1010,8 90 -
10:39 8,4 6,9   Kalm   1010,8 90 -
10:44 8,5 7,0   Kalm   1010,8 90 -
10:49 8,6 7,2   Kalm   1010,8 90 -
10:54 8,8 7,2   Kalm   1010,8 90 -
10:59 8,9 7,2   Kalm   1010,8 89 -
11:04 9,1 7,2   Kalm   1010,8 89 -
11:09 9,2 7,3   Kalm   1011,2 88 -
11:14 9,3 7,4   Kalm   1011,2 88 -
11:19 9,4 7,5   Kalm   1011,2 88 -
11:24 9,5 7,4   Kalm   1010,8 87 -
11:29 9,5 7,4   Kalm   1011,2 87 -
11:34 9,6 7,5   Kalm   1011,2 87 -
11:39 9,7 7,6   Kalm   1011,2 87 -
11:44 9,8 7,7   Kalm   1011,2 87 -
11:49 10,1 7,9   Kalm   1011,2 87 -
11:54 10,2 8,1   Kalm   1011,2 87 -
11:59 10,4 8,2   Kalm   1011,2 86 -
12:04 10,4 8,2   Kalm   1011,2 86 -
12:09 10,5 8,1   Kalm   1011,2 85 -
12:14 10,5 8,1   Kalm   1011,2 85 -
12:19 10,6 8,3   Kalm   1011,5 85 -
12:24 10,6 8,2   Kalm   1011,5 85 -
12:29 10,7 8,3   Kalm   1011,2 85 -
12:34 10,8 8,4   Kalm   1011,5 85 -
12:39 10,9 8,4   Kalm   1011,5 85 -
12:44 10,9 8,3   Kalm   1011,5 84 -
12:49 11,1 8,5   Kalm   1011,5 84 -
12:54 11,1 8,5   Kalm   1011,5 84 -
12:59 11,2 8,7   Kalm   1011,9 85 0,25
13:04 11,1 8,9   Kalm   1011,9 85 0,25
13:09 10,9 8,6   Kalm   1011,9 86 0,25
13:14 10,8 8,6   Kalm   1011,9 87 0,25
13:19 10,7 8,6   Kalm   1011,9 87 0,25
13:24 10,6 8,6   Kalm   1012,2 88 0,76
13:29 10,5 8,6   Kalm   1011,9 88 0,76
13:34 10,4 8,5   Kalm   1012,2 88 1,02
13:39 10,4 8,6   Kalm   1012,2 89 1,27
13:44 10,3 8,6   Kalm   1012,2 89 1,27
13:49 10,3 8,6   Kalm   1012,5 89 1,52
13:54 10,3 8,6   Kalm   1012,5 89 1,52
13:59 10,3 8,6   Kalm   1012,5 89 1,52
14:04 10,3 8,9   Kalm   1012,5 90 1,27
14:09 10,3 8,7   Kalm   1012,9 90 1,52
14:14 10,3 8,7   Kalm   1012,9 90 1,78
14:19 10,3 8,9   Kalm   1012,9 90 2,03
14:24 10,3 8,7   Kalm   1012,9 90 2,03
14:29 10,2 8,6   Kalm   1012,9 90 1,52
14:34 10,2 8,6   Kalm   1012,9 90 1,52
14:39 10,2 8,6   Kalm   1013,2 90 1,27
14:44 10,2 8,6   Kalm   1013,2 90 1,02
14:49 10,2 8,9   Kalm   1013,2 91 0,76
14:54 10,2 8,8   Kalm   1013,2 91 0,76
14:59 10,3 8,9   Kalm   1013,2 91 0,76
15:04 10,3 8,9   Kalm   1013,2 91 0,76
15:09 10,3 8,9   Kalm   1013,6 91 0,76
15:14 10,3 8,7   Kalm   1013,9 90 0,76
15:19 10,3 8,7   Kalm   1013,9 90 0,76
15:24 10,2 8,6   Kalm   1014,2 90 1,02
15:29 9,9 8,3   Kalm   1014,2 90 1,27
15:34 9,8 8,3   Kalm   1014,2 90 1,27
15:39 9,7 8,3   Kalm   1014,2 91 1,27
15:44 9,7 8,3   Kalm   1014,2 91 1,27
15:49 9,7 8,3   Kalm   1014,2 91 1,27
15:54 9,7 8,3   Kalm   1014,2 91 1,27
15:59 9,8 8,4   Kalm   1014,2 91 1,27
16:04 9,8 8,6   Kalm   1014,6 92 1,27
16:09 9,9 8,7   Kalm   1014,6 92 1,27
16:14 10,0 8,8   Kalm   1014,6 92 1,27
16:19 10,1 8,9   Kalm   1014,6 92 0,76
16:24 10,1 8,9   Kalm   1014,6 92 0,51
16:29 10,1 8,7   Kalm   1014,9 91 0,25
16:34 10,0 8,6   Kalm   1014,9 91 -
16:39 10,0 8,6   Kalm   1014,9 91 -
16:44 10,0 8,6   Kalm   1015,2 91 -
16:49 9,9 8,5   Kalm   1015,2 91 -
16:54 9,9 8,5   Kalm   1015,6 91 -
16:59 9,8 8,4   Kalm   1015,6 91 -
17:04 9,7 8,3   Kalm   1015,6 90 -
Dagelijkse Samenvatting Vrijdag 22 oktober 2021
Tijd Temp. ( °C ) Dew pt. ( °C ) Wind ( km/h ) van Windvlaag ( km/h ) Luchtdruk ( hPa ) Humid.( % ) Rainrate ( cm )
Hoog11,2 8,9 0,0 ( 0/0 ) 0,0 1015,6 92 2,03
Gemiddeld7,9 6,2 0,0 Kalm #205/205 0,0 1011,8 89 1,80
Laag5,7 4,3 -   0,0 1010,5 84 -
Dagelijkse Tabular details for Vrijdag 22 oktober 2021
Tijd Temp. ( °C ) Dew pt. ( °C ) Wind ( km/h ) van Windvlaag ( km/h ) Luchtdruk ( hPa ) Humid.( % ) Rainrate ( cm )
00:04 6,4 5,0   Kalm   1011,9 90 -
00:09 6,4 4,9   Kalm   1012,2 90 -
00:14 6,4 4,9   Kalm   1012,2 90 -
00:19 6,4 5,0   Kalm   1012,2 90 -
00:24 6,3 4,8   Kalm   1012,2 90 -
00:29 6,3 4,8   Kalm   1012,2 90 -
00:34 6,3 5,0   Kalm   1012,2 90 -
00:39 6,3 4,8   Kalm   1012,2 90 -
00:44 6,2 4,7   Kalm   1012,2 90 -
00:49 6,2 4,7   Kalm   1012,2 90 -
00:54 6,2 4,7   Kalm   1012,5 90 -
00:59 6,2 4,7   Kalm   1012,5 90 -
01:04 6,2 4,7   Kalm   1012,5 90 -
01:09 6,2 4,8   Kalm   1012,2 91 -
01:14 6,2 4,8   Kalm   1012,2 91 -
01:19 6,3 5,0   Kalm   1012,2 91 -
01:24 6,3 4,9   Kalm   1012,2 91 -
01:29 6,3 4,9   Kalm   1012,2 91 -
01:34 6,3 5,0   Kalm   1012,2 90 -
01:39 6,3 4,8   Kalm   1012,2 90 -
01:44 6,2 4,7   Kalm   1012,2 90 -
01:49 6,1 4,6   Kalm   1012,2 90 -
01:54 6,1 4,6   Kalm   1012,5 90 0,25
01:59 6,2 4,8   Kalm   1012,5 91 0,51
02:04 6,3 5,0   Kalm   1011,9 91 0,51
02:09 6,4 5,0   Kalm   1012,2 91 0,51
02:14 6,4 5,0   Kalm   1012,2 91 0,51
02:19 6,4 5,0   Kalm   1012,2 91 0,51
02:24 6,4 5,0   Kalm   1012,2 91 0,51
02:29 6,4 5,0   Kalm   1012,2 91 0,51
02:34 6,3 5,0   Kalm   1012,2 91 0,51
02:39 6,2 4,7   Kalm   1012,2 90 0,51
02:44 6,2 4,7   Kalm   1012,2 90 0,51
02:49 6,1 4,6   Kalm   1011,9 90 0,51
02:54 5,9 4,5   Kalm   1011,9 91 0,51
02:59 5,9 4,5   Kalm   1011,9 91 0,25
03:04 5,8 4,4   Kalm   1011,9 91 -
03:09 5,8 4,4   Kalm   1011,9 91 -
03:14 5,7 4,3   Kalm   1011,9 91 -
03:19 5,8 4,4   Kalm   1011,9 91 -
03:24 5,8 4,4   Kalm   1011,9 91 -
03:29 5,8 4,4   Kalm   1011,9 91 -
03:34 5,8 4,4   Kalm   1011,9 91 -
03:39 5,8 4,4   Kalm   1011,9 91 -
03:44 5,8 4,4   Kalm   1011,9 91 -
03:49 5,8 4,4   Kalm   1011,9 91 -
03:54 5,8 4,4   Kalm   1011,9 91 -
03:59 5,8 4,4   Kalm   1011,5 91 -
04:04 5,8 4,4   Kalm   1011,9 91 -
04:09 5,8 4,4   Kalm   1011,5 91 -
04:14 5,9 4,5   Kalm   1011,5 91 -
04:19 5,9 4,5   Kalm   1011,5 91 -
04:24 6,1 4,7   Kalm   1011,5 91 -
04:29 6,1 4,7   Kalm   1011,5 91 -
04:34 6,2 5,0   Kalm   1011,5 91 -
04:39 6,2 4,8   Kalm   1011,2 91 -
04:44 6,2 4,7   Kalm   1011,2 90 -
04:49 6,2 4,7   Kalm   1011,2 90 -
04:54 6,2 4,7   Kalm   1011,2 90 -
04:59 6,2 4,7   Kalm   1011,2 90 -
05:04 6,2 4,5   Kalm   1011,2 89 -
05:09 6,1 4,4   Kalm   1011,2 89 -
05:14 6,1 4,4   Kalm   1011,2 89 -
05:19 6,1 4,4   Kalm   1010,8 89 -
05:24 6,0 4,3   Kalm   1010,8 89 -
05:29 6,0 4,3   Kalm   1010,8 89 -
05:34 6,1 4,4   Kalm   1010,8 89 -
05:39 6,1 4,4   Kalm   1010,8 89 -
05:44 6,2 4,4   Kalm   1010,8 88 -
05:49 6,2 4,4   Kalm   1010,8 88 -
05:54 6,2 4,4   Kalm   1010,8 88 -
05:59 6,3 4,5   Kalm   1010,8 88 -
06:04 6,4 4,6   Kalm   1010,8 88 -
06:09 6,5 4,6   Kalm   1011,2 88 -
06:14 6,6 4,6   Kalm   1010,8 87 -
06:19 6,7 4,7   Kalm   1010,8 87 -
06:24 6,7 4,7   Kalm   1010,8 87 -
06:29 6,8 4,8   Kalm   1010,8 87 -
06:34 6,8 5,0   Kalm   1010,8 87 -
06:39 6,8 4,8   Kalm   1010,8 87 -
06:44 6,8 4,6   Kalm   1010,8 86 -
06:49 6,8 4,6   Kalm   1010,8 86 -
06:54 6,8 4,6   Kalm   1010,8 86 -
06:59 6,8 4,6   Kalm   1010,8 86 -
07:04 6,8 4,8   Kalm   1010,8 87 -
07:09 6,8 4,8   Kalm   1010,8 87 -
07:14 6,9 4,9   Kalm   1010,5 87 -
07:19 6,9 5,0   Kalm   1010,5 87 -
07:24 6,9 4,9   Kalm   1010,5 87 -
07:29 7,0 5,0   Kalm   1010,5 87 -
07:34 7,0 5,1   Kalm   1010,5 88 -
07:39 7,1 5,2   Kalm   1010,5 88 -
07:44 7,1 5,2   Kalm   1010,5 88 -
07:49 7,0 5,1   Kalm   1010,5 88 -
07:54 7,0 5,1   Kalm   1010,5 88 -
07:59 7,0 5,1   Kalm   1010,5 88 -
08:04 6,9 5,1   Kalm   1010,5 88 -
08:09 6,9 5,1   Kalm   1010,5 88 -
08:14 6,9 5,2   Kalm   1010,5 89 -
08:19 6,9 5,2   Kalm   1010,5 89 -
08:24 6,9 5,2   Kalm   1010,5 89 -
08:29 6,9 5,2   Kalm   1010,5 89 -
08:34 6,9 5,2   Kalm   1010,5 89 -
08:39 6,9 5,2   Kalm   1010,5 89 -
08:44 6,9 5,2   Kalm   1010,5 89 -
08:49 6,9 5,2   Kalm   1010,5 89 -
08:54 6,9 5,4   Kalm   1010,5 90 -
08:59 6,9 5,4   Kalm   1010,5 90 -
09:04 6,9 5,6   Kalm   1010,5 90 -
09:09 7,0 5,5   Kalm   1010,5 90 -
09:14 7,0 5,5   Kalm   1010,5 90 -
09:19 7,1 5,6   Kalm   1010,5 90 -
09:24 7,2 5,7   Kalm   1010,5 90 -
09:29 7,2 5,7   Kalm   1010,5 90 -
09:34 7,3 5,8   Kalm   1010,5 90 -
09:39 7,5 6,0   Kalm   1010,5 90 -
09:44 7,7 6,2   Kalm   1010,5 90 -
09:49 7,8 6,3   Kalm   1010,8 90 -
09:54 7,9 6,4   Kalm   1010,5 90 -
09:59 8,1 6,4   Kalm   1010,5 90 -
10:04 8,1 6,4   Kalm   1010,5 89 -
10:09 8,2 6,7   Kalm   1010,5 90 -
10:14 8,2 6,7   Kalm   1010,5 90 -
10:19 8,2 6,7   Kalm   1010,5 90 -
10:24 8,2 6,7   Kalm   1010,5 90 -
10:29 8,2 6,7   Kalm   1010,8 90 -
10:34 8,3 6,8   Kalm   1010,8 90 -
10:39 8,4 6,9   Kalm   1010,8 90 -
10:44 8,5 7,0   Kalm   1010,8 90 -
10:49 8,6 7,2   Kalm   1010,8 90 -
10:54 8,8 7,2   Kalm   1010,8 90 -
10:59 8,9 7,2   Kalm   1010,8 89 -
11:04 9,1 7,2   Kalm   1010,8 89 -
11:09 9,2 7,3   Kalm   1011,2 88 -
11:14 9,3 7,4   Kalm   1011,2 88 -
11:19 9,4 7,5   Kalm   1011,2 88 -
11:24 9,5 7,4   Kalm   1010,8 87 -
11:29 9,5 7,4   Kalm   1011,2 87 -
11:34 9,6 7,5   Kalm   1011,2 87 -
11:39 9,7 7,6   Kalm   1011,2 87 -
11:44 9,8 7,7   Kalm   1011,2 87 -
11:49 10,1 7,9   Kalm   1011,2 87 -
11:54 10,2 8,1   Kalm   1011,2 87 -
11:59 10,4 8,2   Kalm   1011,2 86 -
12:04 10,4 8,2   Kalm   1011,2 86 -
12:09 10,5 8,1   Kalm   1011,2 85 -
12:14 10,5 8,1   Kalm   1011,2 85 -
12:19 10,6 8,3   Kalm   1011,5 85 -
12:24 10,6 8,2   Kalm   1011,5 85 -
12:29 10,7 8,3   Kalm   1011,2 85 -
12:34 10,8 8,4   Kalm   1011,5 85 -
12:39 10,9 8,4   Kalm   1011,5 85 -
12:44 10,9 8,3   Kalm   1011,5 84 -
12:49 11,1 8,5   Kalm   1011,5 84 -
12:54 11,1 8,5   Kalm   1011,5 84 -
12:59 11,2 8,7   Kalm   1011,9 85 0,25
13:04 11,1 8,9   Kalm   1011,9 85 0,25
13:09 10,9 8,6   Kalm   1011,9 86 0,25
13:14 10,8 8,6   Kalm   1011,9 87 0,25
13:19 10,7 8,6   Kalm   1011,9 87 0,25
13:24 10,6 8,6   Kalm   1012,2 88 0,76
13:29 10,5 8,6   Kalm   1011,9 88 0,76
13:34 10,4 8,5   Kalm   1012,2 88 1,02
13:39 10,4 8,6   Kalm   1012,2 89 1,27
13:44 10,3 8,6   Kalm   1012,2 89 1,27
13:49 10,3 8,6   Kalm   1012,5 89 1,52
13:54 10,3 8,6   Kalm   1012,5 89 1,52
13:59 10,3 8,6   Kalm   1012,5 89 1,52
14:04 10,3 8,9   Kalm   1012,5 90 1,27
14:09 10,3 8,7   Kalm   1012,9 90 1,52
14:14 10,3 8,7   Kalm   1012,9 90 1,78
14:19 10,3 8,9   Kalm   1012,9 90 2,03
14:24 10,3 8,7   Kalm   1012,9 90 2,03
14:29 10,2 8,6   Kalm   1012,9 90 1,52
14:34 10,2 8,6   Kalm   1012,9 90 1,52
14:39 10,2 8,6   Kalm   1013,2 90 1,27
14:44 10,2 8,6   Kalm   1013,2 90 1,02
14:49 10,2 8,9   Kalm   1013,2 91 0,76
14:54 10,2 8,8   Kalm   1013,2 91 0,76
14:59 10,3 8,9   Kalm   1013,2 91 0,76
15:04 10,3 8,9   Kalm   1013,2 91 0,76
15:09 10,3 8,9   Kalm   1013,6 91 0,76
15:14 10,3 8,7   Kalm   1013,9 90 0,76
15:19 10,3 8,7   Kalm   1013,9 90 0,76
15:24 10,2 8,6   Kalm   1014,2 90 1,02
15:29 9,9 8,3   Kalm   1014,2 90 1,27
15:34 9,8 8,3   Kalm   1014,2 90 1,27
15:39 9,7 8,3   Kalm   1014,2 91 1,27
15:44 9,7 8,3   Kalm   1014,2 91 1,27
15:49 9,7 8,3   Kalm   1014,2 91 1,27
15:54 9,7 8,3   Kalm   1014,2 91 1,27
15:59 9,8 8,4   Kalm   1014,2 91 1,27
16:04 9,8 8,6   Kalm   1014,6 92 1,27
16:09 9,9 8,7   Kalm   1014,6 92 1,27
16:14 10,0 8,8   Kalm   1014,6 92 1,27
16:19 10,1 8,9   Kalm   1014,6 92 0,76
16:24 10,1 8,9   Kalm   1014,6 92 0,51
16:29 10,1 8,7   Kalm   1014,9 91 0,25
16:34 10,0 8,6   Kalm   1014,9 91 -
16:39 10,0 8,6   Kalm   1014,9 91 -
16:44 10,0 8,6   Kalm   1015,2 91 -
16:49 9,9 8,5   Kalm   1015,2 91 -
16:54 9,9 8,5   Kalm   1015,6 91 -
16:59 9,8 8,4   Kalm   1015,6 91 -
17:04 9,7 8,3   Kalm   1015,6 90 -

Download your copy of this data-set  here

Our weather-data as stored at Weather Underground. Script ontwikkeld door Jim McMurry. Aangepast voor de template door Leuven-Template.eu

U vindt ons ook hier:

Het Weer Aktueel

European Weather Network

Weather Underground

Benelux Weer Netwerk

Apparatuur in gebruik:

Weerstation
Davis VP2

Weerprogramma
Meteobridge

Weercomputer
Meteobridge Pro+

Webleverancier
vip.nl

Davis VP2

Meteobridge

Meteobridge Pro+

vip.nl